Date String (YYYY-MM-DD hh:mm:ss) UTC,Instrument flags,Ambient pressure (hPa),Sample flow (lpm),Bypass flow (lpm),Sample temperature (°C),Ambient temperature (°C),ASC tube jacket temperature (°C),LED temperature (°C),Box temperature (°C),Sample RH (%),Span deviation,Mass concentration (μg/m³),Mass concentration (μg/m³),Mass concentration (μg/m³)
DateTimeUTC,F1_M11,P_M11,Q1_M11,Q2_M11,T1_M11,T2_M11,T3_M11,T4_M11,T5_M11,U1_M11,ZSPAN_M11,X0_M11,X2_M11,X1_M11
2023-05-21 08:00:00,,0834.2,5.00,0.00,28.6,26.7,00.0,36.9,30.1,20.3,0003.0,0018.32,0014.22,0013.63
2023-05-21 08:01:00,,0834.2,5.01,0.00,28.5,26.7,00.0,36.9,30.1,20.3,0003.1,0018.66,0014.44,0013.79
2023-05-21 08:02:00,,0834.2,5.01,0.00,28.5,26.7,00.0,36.9,30.1,20.3,0003.1,0018.91,0014.61,0013.95
2023-05-21 08:03:00,,0834.2,5.00,0.00,28.5,26.7,00.0,36.9,30.1,20.5,0003.2,0019.05,0014.74,0014.07
2023-05-21 08:04:00,,0834.2,4.99,0.00,28.5,26.7,00.0,36.9,30.1,20.4,0003.2,0019.29,0014.91,0014.23
2023-05-21 08:05:00,,0834.2,4.99,0.00,28.5,26.7,00.0,36.9,30.1,20.4,0003.3,0019.54,0015.10,0014.38
2023-05-21 08:06:00,,0834.2,5.00,0.00,28.5,26.7,00.0,36.9,30.1,20.5,0003.4,0019.76,0015.24,0014.50
2023-05-21 08:07:00,,0834.2,5.01,0.00,28.5,26.7,00.0,36.9,30.1,20.6,0003.5,0019.78,0015.28,0014.55
2023-05-21 08:08:00,,0834.2,5.00,0.00,28.5,26.7,00.0,36.9,30.1,20.6,0003.3,0019.78,0015.30,0014.59
2023-05-21 08:09:00,,0834.2,4.98,0.00,28.5,26.7,00.0,36.9,30.1,20.6,0003.5,0019.82,0015.33,0014.61
2023-05-21 08:10:00,,0834.2,5.00,0.00,28.5,26.7,00.0,36.9,30.1,20.5,0003.7,0019.79,0015.32,0014.62
2023-05-21 08:11:00,,0834.2,5.00,0.00,28.5,26.7,00.0,36.9,30.1,20.6,0003.8,0019.65,0015.24,0014.56
2023-05-21 08:12:00,,0834.2,5.00,0.00,28.5,26.7,00.0,36.9,30.1,20.5,0003.8,0019.46,0015.17,0014.53
2023-05-21 08:13:00,,0834.2,5.00,0.00,28.5,26.7,00.0,36.9,30.1,20.5,0003.8,0019.41,0015.14,0014.49
2023-05-21 08:14:00,,0834.2,5.00,0.00,28.5,26.7,00.0,36.9,30.1,20.5,0003.8,0019.38,0015.14,0014.49
2023-05-21 08:15:00,,0834.2,5.00,0.00,28.5,26.6,00.0,36.8,30.1,20.5,0003.7,0019.40,0015.12,0014.47
2023-05-21 08:16:00,,0834.2,5.00,0.00,28.5,26.6,00.0,36.8,30.0,20.4,0003.6,0019.25,0015.05,0014.44
2023-05-21 08:17:00,,0834.2,5.00,0.00,28.5,26.6,00.0,36.8,30.0,20.5,0003.6,0019.03,0014.95,0014.37
2023-05-21 08:18:00,,0834.2,5.01,0.00,28.4,26.6,00.0,36.8,30.0,20.5,0003.5,0019.02,0014.94,0014.37
2023-05-21 08:19:00,,0834.2,5.00,0.00,28.4,26.6,00.0,36.8,30.0,20.5,0003.4,0018.99,0014.93,0014.37
2023-05-21 08:20:00,,0834.2,5.00,0.00,28.4,26.6,00.0,36.8,30.0,20.4,0003.3,0019.06,0015.00,0014.43
2023-05-21 08:21:00,,0834.3,5.00,0.00,28.4,26.6,00.0,36.8,30.0,20.5,0003.1,0019.06,0015.04,0014.49
2023-05-21 08:22:00,,0834.3,4.99,0.00,28.4,26.6,00.0,36.8,30.0,20.6,0002.9,0019.08,0015.08,0014.52
2023-05-21 08:23:00,,0834.2,5.01,0.00,28.4,26.6,00.0,36.8,30.0,20.5,0002.9,0019.08,0015.12,0014.57
2023-05-21 08:24:00,,0834.2,5.00,0.00,28.4,26.6,00.0,36.8,30.0,20.5,0002.9,0019.04,0015.14,0014.62
2023-05-21 08:25:00,,0834.4,5.01,0.00,28.4,26.6,00.0,36.8,30.0,20.4,0002.9,0019.13,0015.19,0014.67
2023-05-21 08:26:00,,0834.2,5.00,0.00,28.4,26.6,00.0,36.8,30.0,20.4,0002.9,0019.28,0015.27,0014.73
2023-05-21 08:27:00,,0834.2,4.99,0.00,28.4,26.6,00.0,36.8,30.0,20.4,0003.0,0019.54,0015.35,0014.80
2023-05-21 08:28:00,,0834.2,4.98,0.00,28.4,26.5,00.0,36.8,30.0,20.4,0002.8,0019.81,0015.48,0014.90
2023-05-21 08:29:00,,0834.2,5.00,0.00,28.4,26.5,00.0,36.8,30.0,20.4,0002.8,0019.97,0015.59,0014.99
2023-05-21 08:30:00,,0834.3,5.01,0.00,28.4,26.5,00.0,36.8,29.9,20.5,0002.8,0020.09,0015.68,0015.04
2023-05-21 08:31:00,,0834.2,5.01,0.00,28.4,26.5,00.0,36.8,29.9,20.5,0002.8,0020.62,0015.72,0015.09
2023-05-21 08:32:00,,0834.4,5.01,0.00,28.4,26.5,00.0,36.8,29.9,20.4,0002.8,0020.88,0015.78,0015.13
2023-05-21 08:33:00,,0834.3,4.98,0.00,28.3,26.5,00.0,36.7,29.9,20.4,0002.9,0020.98,0015.85,0015.20
2023-05-21 08:34:00,,0834.3,4.99,0.00,28.3,26.5,00.0,36.7,29.9,20.4,0002.9,0021.07,0015.91,0015.26
2023-05-21 08:35:00,,0834.3,5.00,0.00,28.3,26.5,00.0,36.7,29.9,20.4,0002.9,0021.18,0016.00,0015.32
2023-05-21 08:36:00,,0834.2,5.01,0.00,28.3,26.5,00.0,36.7,29.9,20.5,0002.8,0021.24,0016.03,0015.35
2023-05-21 08:37:00,,0834.2,5.01,0.00,28.3,26.5,00.0,36.7,29.9,20.4,0002.8,0021.27,0016.08,0015.39
2023-05-21 08:38:00,,0834.3,5.00,0.00,28.3,26.4,00.0,36.7,29.9,20.4,0002.9,0021.26,0016.13,0015.41
2023-05-21 08:39:00,,0834.2,4.99,0.00,28.3,26.4,00.0,36.7,29.9,20.4,0002.9,0021.00,0016.10,0015.42
2023-05-21 08:40:00,,0834.2,4.99,0.00,28.3,26.4,00.0,36.7,29.9,20.4,0003.1,0020.98,0016.11,0015.46
2023-05-21 08:41:00,,0834.2,5.01,0.00,28.3,26.4,00.0,36.7,29.9,20.5,0003.1,0020.94,0016.10,0015.48
2023-05-21 08:42:00,,0834.2,5.01,0.00,28.3,26.4,00.0,36.7,29.9,20.4,0003.2,0020.74,0016.14,0015.51
2023-05-21 08:43:00,,0834.2,5.00,0.00,28.3,26.4,00.0,36.7,29.9,20.4,0003.2,0020.33,0016.13,0015.52
2023-05-21 08:44:00,,0834.2,4.98,0.00,28.3,26.4,00.0,36.7,29.9,20.5,0003.3,0020.36,0016.15,0015.54
2023-05-21 08:45:00,,0834.2,5.00,0.00,28.3,26.4,00.0,36.7,29.8,20.5,0003.2,0020.45,0016.18,0015.55
2023-05-21 08:46:00,,0834.2,5.01,0.00,28.3,26.4,00.0,36.7,29.8,20.4,0003.2,0020.46,0016.17,0015.56
2023-05-21 08:47:00,,0834.2,5.01,0.00,28.3,26.4,00.0,36.7,29.9,20.5,0003.2,0020.64,0016.22,0015.57
2023-05-21 08:48:00,,0834.2,5.00,0.00,28.2,26.4,00.0,36.7,29.8,20.6,0003.3,0020.71,0016.21,0015.55
2023-05-21 08:49:00,,0834.2,4.99,0.00,28.2,26.4,00.0,36.6,29.8,20.5,0003.2,0020.62,0016.17,0015.54
2023-05-21 08:50:00,,0834.1,5.00,0.00,28.2,26.4,00.0,36.6,29.8,20.5,0003.3,0020.70,0016.21,0015.55
2023-05-21 08:51:00,,0834.2,5.00,0.00,28.2,26.4,00.0,36.6,29.8,20.5,0003.3,0020.71,0016.20,0015.52
2023-05-21 08:52:00,,0834.2,5.00,0.00,28.2,26.4,00.0,36.6,29.8,20.4,0003.3,0020.86,0016.23,0015.51
2023-05-21 08:53:00,,0834.2,5.01,0.00,28.2,26.4,00.0,36.6,29.8,20.4,0003.2,0020.97,0016.28,0015.55
2023-05-21 08:54:00,,0834.2,5.00,0.00,28.2,26.4,00.0,36.6,29.8,20.4,0003.2,0021.12,0016.36,0015.56
2023-05-21 08:55:00,,0834.2,4.99,0.00,28.2,26.4,00.0,36.6,29.8,20.3,0003.2,0021.45,0016.41,0015.58
2023-05-21 08:56:00,,0834.2,5.00,0.00,28.2,26.4,00.0,36.6,29.8,20.4,0003.3,0021.58,0016.43,0015.60
2023-05-21 08:57:00,,0834.1,4.99,0.00,28.2,26.4,00.0,36.6,29.8,20.3,0003.4,0021.70,0016.50,0015.64
2023-05-21 08:58:00,,0834.1,5.01,0.00,28.2,26.3,00.0,36.6,29.8,20.3,0003.5,0021.68,0016.49,0015.65
2023-05-21 08:59:00,,0834.1,5.01,0.00,28.2,26.3,00.0,36.6,29.8,20.3,0003.5,0021.88,0016.53,0015.70
